View from above orbital plane
|
View from above satellite
|
Ground track
|
The orbit data is extracted from the following two-line orbital elements,
1 37386U 11014A 21097.84317499 0.00000000 00000-0 00000-0 0 01
2 37386 63.4444 76.6893 0197972 357.9314 2.0686 13.40819663 03
Epoch (UTC): | 07 April 2021 20:14:10 |
Eccentricity: | 0.0197972 |
inclination: | 63.4444° |
perigee height: | 958 km |
apogee height: | 1254 km |
right ascension of ascending node: | 76.6893° |
argument of perigee: | 357.9314° |
revolutions per day: | 13.40819663 |
mean anomaly at epoch: | 2.0686° |
orbit number at epoch: | 0 |
The dashed part of the orbit path shows where the satellite is in the earth's shadow,
|
|